Home   Weather   Ohrid   Past weeks

Flag for Macedonia, Republic of Past Weather in Ohrid, Macedonia, Republic of — Yesterday and Last 2 Weeks

Now
45 °F

Partly sunny.


Feels Like: 40 °F
Forecast: 30 / 44 °F
Wind: 9 mph from Northwest

Location: Ohrid Airport

Current Time: Dec 5, 2016 at 9:37:50 am

Latest Report: Dec 5, 2016 at 9:00 am


Visibility: N/A

Pressure: 30.39 "Hg (27.92 "Hg at 696m altitude)

Humidity: 53%

Dew Point: 28 °F

Location of OhridLocation

Past Weather in Ohrid — Graph

°F

Ohrid Temperature Yesterday

Maximum temperature yesterday: 46 °F (at 2:00 pm)
Minimum temperature yesterday: 39 °F (at 8:00 am)
Average temperature yesterday: 42 °F

High & Low Weather Summary for the Past Weeks

 TemperatureHumidityPressure
High54 °F (Nov 20, 1:00 pm)93% (Nov 22, 8:00 am)30.39 "Hg (Nov 22, 8:00 am)
Low27 °F (Dec 1, 8:00 am)26% (Nov 30, 1:00 pm)29.80 "Hg (Nov 28, 7:30 am)
Average43 °F70%30.14 "Hg
* Reported Nov 20 8:00 am — Dec 5 8:30 am, Ohrid, Weather by CustomWeather, © 2016

Note: Actual official high and low records may vary slightly from our data, if they occured in-between our weather recording intervals... More about our weather records

Advertising

Ohrid Weather History for the Previous 24 Hours

Scroll right to see more
 ConditionsComfort  
Time TempWeatherWind HumidityBarometerVisibility
8:30 am
Mon, Dec 5
41 °FPartly sunny.8 mph61%30.39 "HgN/A
8:00 am41 °FPartly sunny.6 mph66%30.39 "HgN/A
9:00 pm
Sun, Dec 4
39 °FPassing clouds.6 mph61%30.36 "HgN/A
8:30 pm41 °FPartly cloudy.10 mph61%30.33 "HgN/A
8:00 pm41 °FPartly cloudy.9 mph61%30.30 "HgN/A
7:30 pm41 °FPartly cloudy.7 mph57%30.30 "HgN/A
7:00 pm41 °FPartly cloudy.10 mph57%30.30 "HgN/A
6:30 pm41 °FPassing clouds.9 mph57%30.30 "HgN/A
6:00 pm41 °FPassing clouds.9 mph57%30.30 "HgN/A
5:30 pm41 °FPassing clouds.6 mph57%30.30 "HgN/A
5:00 pm41 °FPassing clouds.5 mph57%30.27 "HgN/A
4:30 pm41 °FOvercast.9 mph57%30.27 "HgN/A
4:00 pm43 °FOvercast.7 mph57%30.27 "HgN/A
3:30 pm43 °FOvercast.7 mph57%30.27 "HgN/A
3:00 pm43 °FOvercast.9 mph57%30.27 "HgN/A
2:30 pm46 °FPartly sunny.6 mph50%30.27 "HgN/A
2:00 pm46 °FOvercast.6 mph50%30.27 "HgN/A
1:30 pm45 °FOvercast.5 mph49%30.27 "HgN/A
1:00 pm43 °FOvercast.6 mph53%30.27 "HgN/A
12:30 pm43 °FOvercast.8 mph53%30.27 "HgN/A
12:00 pm43 °FOvercast.9 mph53%30.27 "HgN/A
11:30 am43 °FOvercast.9 mph53%30.30 "HgN/A
11:00 am43 °FOvercast.9 mph53%30.30 "HgN/A
10:30 am41 °FOvercast.9 mph57%30.30 "HgN/A
10:00 am41 °FOvercast.9 mph57%30.30 "HgN/A
9:30 am41 °FOvercast.9 mph57%30.30 "HgN/A
9:00 am39 °FOvercast.9 mph61%30.27 "HgN/A
Weather by CustomWeather, © 2016

See weather overviewHow to use our weather pages